Year,Month,Day,Hour,Minute,Value (Times are PST for temperature in C)
2021,04,17,00,00,10.80
2021,04,17,00,01,10.70
2021,04,17,00,02,10.70
2021,04,17,00,03,10.70
2021,04,17,00,04,10.70
2021,04,17,00,05,10.60
2021,04,17,00,06,10.60
2021,04,17,00,07,10.60
2021,04,17,00,08,10.60
2021,04,17,00,09,10.60
2021,04,17,00,10,10.50
2021,04,17,00,11,10.50
2021,04,17,00,12,10.50
2021,04,17,00,13,10.40
2021,04,17,00,14,10.40
2021,04,17,00,15,10.30
2021,04,17,00,16,10.30
2021,04,17,00,17,10.20
2021,04,17,00,18,10.20
2021,04,17,00,19,10.20
2021,04,17,00,20,10.20
2021,04,17,00,21,10.20
2021,04,17,00,22,10.20
2021,04,17,00,23,10.20
2021,04,17,00,24,10.20
2021,04,17,00,25,10.20
2021,04,17,00,26,10.20
2021,04,17,00,27,10.20
2021,04,17,00,28,10.20
2021,04,17,00,29,10.10
2021,04,17,00,30,10.10
2021,04,17,00,31,10.10
2021,04,17,00,32,10.00
2021,04,17,00,33,10.00
2021,04,17,00,34,9.90
2021,04,17,00,35,9.90
2021,04,17,00,36,9.90
2021,04,17,00,37,9.80
2021,04,17,00,38,9.80
2021,04,17,00,39,9.80
2021,04,17,00,40,9.80
2021,04,17,00,41,9.80
2021,04,17,00,42,9.80
2021,04,17,00,43,9.80
2021,04,17,00,44,9.70
2021,04,17,00,45,9.70
2021,04,17,00,46,9.70
2021,04,17,00,47,9.70
2021,04,17,00,48,9.70
2021,04,17,00,49,9.60
2021,04,17,00,50,9.60
2021,04,17,00,51,9.60
2021,04,17,00,52,9.60
2021,04,17,00,53,9.60
2021,04,17,00,54,9.50
2021,04,17,00,55,9.50
2021,04,17,00,56,9.50
2021,04,17,00,57,9.40
2021,04,17,00,58,9.40
2021,04,17,00,59,9.40
2021,04,17,01,00,9.40
2021,04,17,01,01,9.40
2021,04,17,01,02,9.40
2021,04,17,01,03,9.40
2021,04,17,01,04,9.40
2021,04,17,01,05,9.40
2021,04,17,01,06,9.40
2021,04,17,01,07,9.40
2021,04,17,01,08,9.30
2021,04,17,01,09,9.30
2021,04,17,01,10,9.30
2021,04,17,01,11,9.30
2021,04,17,01,12,9.30
2021,04,17,01,13,9.30
2021,04,17,01,14,9.30
2021,04,17,01,15,9.20
2021,04,17,01,16,9.20
2021,04,17,01,17,9.20
2021,04,17,01,18,9.10
2021,04,17,01,19,9.10
2021,04,17,01,20,9.10
2021,04,17,01,21,9.00
2021,04,17,01,22,9.00
2021,04,17,01,23,9.00
2021,04,17,01,24,8.90
2021,04,17,01,25,8.90
2021,04,17,01,26,8.90
2021,04,17,01,27,8.90
2021,04,17,01,28,8.90
2021,04,17,01,29,8.90
2021,04,17,01,30,8.80
2021,04,17,01,31,8.80
2021,04,17,01,32,8.80
2021,04,17,01,33,8.80
2021,04,17,01,34,8.80
2021,04,17,01,35,8.70
2021,04,17,01,36,8.70
2021,04,17,01,37,8.70
2021,04,17,01,38,8.70
2021,04,17,01,39,8.70
2021,04,17,01,40,8.60
2021,04,17,01,41,8.60
2021,04,17,01,42,8.60
2021,04,17,01,43,8.60
2021,04,17,01,44,8.50
2021,04,17,01,45,8.50
2021,04,17,01,46,8.40
2021,04,17,01,47,8.40
2021,04,17,01,48,8.40
2021,04,17,01,49,8.40
2021,04,17,01,50,8.40
2021,04,17,01,51,8.40
2021,04,17,01,52,8.40
2021,04,17,01,53,8.30
2021,04,17,01,54,8.30
2021,04,17,01,55,8.30
2021,04,17,01,56,8.30
2021,04,17,01,57,8.30
2021,04,17,01,58,8.30
2021,04,17,01,59,8.30
2021,04,17,02,00,8.20
2021,04,17,02,01,8.20
2021,04,17,02,02,8.20
2021,04,17,02,03,8.20
2021,04,17,02,04,8.20
2021,04,17,02,05,8.20
2021,04,17,02,06,8.20
2021,04,17,02,07,8.20
2021,04,17,02,08,8.20
2021,04,17,02,09,8.20
2021,04,17,02,10,8.20
2021,04,17,02,11,8.20
2021,04,17,02,12,8.20
2021,04,17,02,13,8.20
2021,04,17,02,14,8.20
2021,04,17,02,15,8.20
2021,04,17,02,16,8.10
2021,04,17,02,17,8.10
2021,04,17,02,18,8.10
2021,04,17,02,19,8.10
2021,04,17,02,20,8.10
2021,04,17,02,21,8.10
2021,04,17,02,22,8.00
2021,04,17,02,23,8.00
2021,04,17,02,24,8.00
2021,04,17,02,25,7.90
2021,04,17,02,26,7.90
2021,04,17,02,27,7.90
2021,04,17,02,28,7.80
2021,04,17,02,29,7.80
2021,04,17,02,30,7.80
2021,04,17,02,31,7.80
2021,04,17,02,32,7.80
2021,04,17,02,33,7.80
2021,04,17,02,34,7.70
2021,04,17,02,35,7.70
2021,04,17,02,36,7.70
2021,04,17,02,37,7.70
2021,04,17,02,38,7.60
2021,04,17,02,39,7.60
2021,04,17,02,40,7.60
2021,04,17,02,41,7.50
2021,04,17,02,42,7.50
2021,04,17,02,43,7.50
2021,04,17,02,44,7.50
2021,04,17,02,45,7.50
2021,04,17,02,46,7.40
2021,04,17,02,47,7.40
2021,04,17,02,48,7.30
2021,04,17,02,49,7.30
2021,04,17,02,50,7.30
2021,04,17,02,51,7.30
2021,04,17,02,52,7.30
2021,04,17,02,53,7.30
2021,04,17,02,54,7.30
2021,04,17,02,55,7.20
2021,04,17,02,56,7.20
2021,04,17,02,57,7.20
2021,04,17,02,58,7.20
2021,04,17,02,59,7.20
2021,04,17,03,00,7.20
2021,04,17,03,01,7.20
2021,04,17,03,02,7.20
2021,04,17,03,03,7.20
2021,04,17,03,04,7.20
2021,04,17,03,05,7.20
2021,04,17,03,06,7.20
2021,04,17,03,07,7.20
2021,04,17,03,08,7.20
2021,04,17,03,09,7.10
2021,04,17,03,10,7.10
2021,04,17,03,11,7.10
2021,04,17,03,12,7.10
2021,04,17,03,13,7.10
2021,04,17,03,14,7.10
2021,04,17,03,15,7.10
2021,04,17,03,16,7.10
2021,04,17,03,17,7.10
2021,04,17,03,18,7.10
2021,04,17,03,19,7.10
2021,04,17,03,20,7.10
2021,04,17,03,21,7.10
2021,04,17,03,22,7.10
2021,04,17,03,23,7.10
2021,04,17,03,24,7.00
2021,04,17,03,25,7.00
2021,04,17,03,26,7.00
2021,04,17,03,27,7.00
2021,04,17,03,28,6.90
2021,04,17,03,29,6.90
2021,04,17,03,30,6.90
2021,04,17,03,31,6.90
2021,04,17,03,32,6.90
2021,04,17,03,33,6.90
2021,04,17,03,34,6.80
2021,04,17,03,35,6.80
2021,04,17,03,36,6.80
2021,04,17,03,37,6.80
2021,04,17,03,38,6.80
2021,04,17,03,39,6.80
2021,04,17,03,40,6.80
2021,04,17,03,41,6.80
2021,04,17,03,42,6.80
2021,04,17,03,43,6.80
2021,04,17,03,44,6.80
2021,04,17,03,45,6.80
2021,04,17,03,46,6.80
2021,04,17,03,47,6.70
2021,04,17,03,48,6.70
2021,04,17,03,49,6.70
2021,04,17,03,50,6.70
2021,04,17,03,51,6.70
2021,04,17,03,52,6.70
2021,04,17,03,53,6.60
2021,04,17,03,54,6.60
2021,04,17,03,55,6.60
2021,04,17,03,56,6.60
2021,04,17,03,57,6.60
2021,04,17,03,58,6.60
2021,04,17,03,59,6.60
2021,04,17,04,00,6.50
2021,04,17,04,01,6.50
2021,04,17,04,02,6.50
2021,04,17,04,03,6.40
2021,04,17,04,04,6.40
2021,04,17,04,05,6.40
2021,04,17,04,06,6.40
2021,04,17,04,07,6.40
2021,04,17,04,08,6.30
2021,04,17,04,09,6.30
2021,04,17,04,10,6.30
2021,04,17,04,11,6.30
2021,04,17,04,12,6.30
2021,04,17,04,13,6.30
2021,04,17,04,14,6.20
2021,04,17,04,15,6.20
2021,04,17,04,16,6.20
2021,04,17,04,17,6.20
2021,04,17,04,18,6.20
2021,04,17,04,19,6.20
2021,04,17,04,20,6.20
2021,04,17,04,21,6.10
2021,04,17,04,22,6.10
2021,04,17,04,23,6.10
2021,04,17,04,24,6.10
2021,04,17,04,25,6.10
2021,04,17,04,26,6.10
2021,04,17,04,27,6.00
2021,04,17,04,28,6.00
2021,04,17,04,29,6.00
2021,04,17,04,30,6.00
2021,04,17,04,31,6.00
2021,04,17,04,32,6.00
2021,04,17,04,33,5.90
2021,04,17,04,34,5.90
2021,04,17,04,35,5.90
2021,04,17,04,36,5.90
2021,04,17,04,37,5.90
2021,04,17,04,38,5.90
2021,04,17,04,39,5.80
2021,04,17,04,40,5.80
2021,04,17,04,41,5.80
2021,04,17,04,42,5.80
2021,04,17,04,43,5.80
2021,04,17,04,44,5.80
2021,04,17,04,45,5.80
2021,04,17,04,46,5.80
2021,04,17,04,47,5.80
2021,04,17,04,48,5.80
2021,04,17,04,49,5.80
2021,04,17,04,50,5.80
2021,04,17,04,51,5.80
2021,04,17,04,52,5.80
2021,04,17,04,53,5.80
2021,04,17,04,54,5.70
2021,04,17,04,55,5.70
2021,04,17,04,56,5.70
2021,04,17,04,57,5.70
2021,04,17,04,58,5.70
2021,04,17,04,59,5.70
2021,04,17,05,00,5.70
2021,04,17,05,01,5.70
2021,04,17,05,02,5.70
2021,04,17,05,03,5.70
2021,04,17,05,04,5.70
2021,04,17,05,05,5.70
2021,04,17,05,06,5.70
2021,04,17,05,07,5.70
2021,04,17,05,08,5.70
2021,04,17,05,09,5.70
2021,04,17,05,10,5.70
2021,04,17,05,11,5.70
2021,04,17,05,12,5.70
2021,04,17,05,13,5.70
2021,04,17,05,14,5.70
2021,04,17,05,15,5.70
2021,04,17,05,16,5.70
2021,04,17,05,17,5.60
2021,04,17,05,18,5.60
2021,04,17,05,19,5.60
2021,04,17,05,20,5.60
2021,04,17,05,21,5.60
2021,04,17,05,22,5.60
2021,04,17,05,23,5.60
2021,04,17,05,24,5.50
2021,04,17,05,25,5.50
2021,04,17,05,26,5.50
2021,04,17,05,27,5.50
2021,04,17,05,28,5.50
2021,04,17,05,29,5.50
2021,04,17,05,30,5.40
2021,04,17,05,31,5.40
2021,04,17,05,32,5.40
2021,04,17,05,33,5.40
2021,04,17,05,34,5.40
2021,04,17,05,35,5.40
2021,04,17,05,36,5.40
2021,04,17,05,37,5.40
2021,04,17,05,38,5.30
2021,04,17,05,39,5.30
2021,04,17,05,40,5.30
2021,04,17,05,41,5.30
2021,04,17,05,42,5.30
2021,04,17,05,43,5.30
2021,04,17,05,44,5.30
2021,04,17,05,45,5.30
2021,04,17,05,46,5.30
2021,04,17,05,47,5.20
2021,04,17,05,48,5.20
2021,04,17,05,49,5.20
2021,04,17,05,50,5.20
2021,04,17,05,51,5.20
2021,04,17,05,52,5.20
2021,04,17,05,53,5.20
2021,04,17,05,54,5.20
2021,04,17,05,55,5.20
2021,04,17,05,56,5.20
2021,04,17,05,57,5.20
2021,04,17,05,58,5.20
2021,04,17,05,59,5.20
2021,04,17,06,00,5.20
2021,04,17,06,01,5.20
2021,04,17,06,02,5.10
2021,04,17,06,03,5.10
2021,04,17,06,04,5.10
2021,04,17,06,05,5.10
2021,04,17,06,06,5.10
2021,04,17,06,07,5.10
2021,04,17,06,08,5.10
2021,04,17,06,09,5.10
2021,04,17,06,10,5.10
2021,04,17,06,11,5.10
2021,04,17,06,12,5.10
2021,04,17,06,13,5.10
2021,04,17,06,14,5.10
2021,04,17,06,15,5.10
2021,04,17,06,16,5.10
2021,04,17,06,17,5.10
2021,04,17,06,18,5.00
2021,04,17,06,19,5.00
2021,04,17,06,20,5.00
2021,04,17,06,21,5.00
2021,04,17,06,22,5.00
2021,04,17,06,23,5.00
2021,04,17,06,24,5.00
2021,04,17,06,25,5.00
2021,04,17,06,26,5.00
2021,04,17,06,27,5.00
2021,04,17,06,28,5.00
2021,04,17,06,29,4.90
2021,04,17,06,30,4.90
2021,04,17,06,31,4.90
2021,04,17,06,32,4.90
2021,04,17,06,33,4.90
2021,04,17,06,34,4.90
2021,04,17,06,35,4.90
2021,04,17,06,36,4.90
2021,04,17,06,37,4.80
2021,04,17,06,38,4.80
2021,04,17,06,39,4.80
2021,04,17,06,40,4.80
2021,04,17,06,41,4.80
2021,04,17,06,42,4.80
2021,04,17,06,43,4.80
2021,04,17,06,44,4.80
2021,04,17,06,45,4.70
2021,04,17,06,46,4.70
2021,04,17,06,47,4.70
2021,04,17,06,48,4.70
2021,04,17,06,49,4.70
2021,04,17,06,50,4.70
2021,04,17,06,51,4.70
2021,04,17,06,52,4.70
2021,04,17,06,53,4.70
2021,04,17,06,54,4.70
2021,04,17,06,55,4.70
2021,04,17,06,56,4.70
2021,04,17,06,57,4.70
2021,04,17,06,58,4.70
2021,04,17,06,59,4.70
2021,04,17,07,00,4.70
2021,04,17,07,01,4.70
2021,04,17,07,02,4.80
2021,04,17,07,03,4.80
2021,04,17,07,04,4.80
2021,04,17,07,05,4.80
2021,04,17,07,06,4.80
2021,04,17,07,07,4.80
2021,04,17,07,08,4.80
2021,04,17,07,09,4.80
2021,04,17,07,10,4.80
2021,04,17,07,11,4.90
2021,04,17,07,12,5.00
2021,04,17,07,13,5.10
2021,04,17,07,14,5.10
2021,04,17,07,15,5.10
2021,04,17,07,16,5.10
2021,04,17,07,17,5.20
2021,04,17,07,18,5.20
2021,04,17,07,19,5.30
2021,04,17,07,20,5.30
2021,04,17,07,21,5.40
2021,04,17,07,22,5.40
2021,04,17,07,23,5.50
2021,04,17,07,24,5.50
2021,04,17,07,25,5.60
2021,04,17,07,26,5.70
2021,04,17,07,27,5.70
2021,04,17,07,28,5.80
2021,04,17,07,29,5.90
2021,04,17,07,30,5.90
2021,04,17,07,31,6.00
2021,04,17,07,32,6.10
2021,04,17,07,33,6.20
2021,04,17,07,34,6.20
2021,04,17,07,35,6.20
2021,04,17,07,36,6.20
2021,04,17,07,37,6.30
2021,04,17,07,38,6.30
2021,04,17,07,39,6.30
2021,04,17,07,40,6.40
2021,04,17,07,41,6.40
2021,04,17,07,42,6.40
2021,04,17,07,43,6.40
2021,04,17,07,44,6.40
2021,04,17,07,45,6.40
2021,04,17,07,46,6.40
2021,04,17,07,47,6.40
2021,04,17,07,48,6.40
2021,04,17,07,49,6.40
2021,04,17,07,50,6.40
2021,04,17,07,51,6.50
2021,04,17,07,52,6.50
2021,04,17,07,53,6.50
2021,04,17,07,54,6.50
2021,04,17,07,55,6.60
2021,04,17,07,56,6.60
2021,04,17,07,57,6.60
2021,04,17,07,58,6.60
2021,04,17,07,59,6.70
2021,04,17,08,00,6.70
2021,04,17,08,01,6.70
2021,04,17,08,02,6.80
2021,04,17,08,03,6.80
2021,04,17,08,04,6.80
2021,04,17,08,05,6.90
2021,04,17,08,06,6.90
2021,04,17,08,07,7.00
2021,04,17,08,08,7.10
2021,04,17,08,09,7.10
2021,04,17,08,10,7.20
2021,04,17,08,11,7.20
2021,04,17,08,12,7.20
2021,04,17,08,13,7.30
2021,04,17,08,14,7.40
2021,04,17,08,15,7.40
2021,04,17,08,16,7.50
2021,04,17,08,17,7.50
2021,04,17,08,18,7.50
2021,04,17,08,19,7.60
2021,04,17,08,20,7.70
2021,04,17,08,21,7.70
2021,04,17,08,22,7.80
2021,04,17,08,23,7.90
2021,04,17,08,24,7.90
2021,04,17,08,25,8.00
2021,04,17,08,26,8.00
2021,04,17,08,27,8.10
2021,04,17,08,28,8.10
2021,04,17,08,29,8.10
2021,04,17,08,30,8.20
2021,04,17,08,31,8.20
2021,04,17,08,32,8.30
2021,04,17,08,33,8.30
2021,04,17,08,34,8.40
2021,04,17,08,35,8.50
2021,04,17,08,36,8.60
2021,04,17,08,37,8.80
2021,04,17,08,38,8.90
2021,04,17,08,39,9.10
2021,04,17,08,40,9.20
2021,04,17,08,41,9.30
2021,04,17,08,42,9.40
2021,04,17,08,43,9.40
2021,04,17,08,44,9.50
2021,04,17,08,45,9.70
2021,04,17,08,46,9.80
2021,04,17,08,47,10.00
2021,04,17,08,48,10.10
2021,04,17,08,49,10.20
2021,04,17,08,50,10.30
2021,04,17,08,51,10.30
2021,04,17,08,52,10.40
2021,04,17,08,53,10.50
2021,04,17,08,54,10.60
2021,04,17,08,55,10.70
2021,04,17,08,56,10.70
2021,04,17,08,57,10.70
2021,04,17,08,58,10.70
2021,04,17,08,59,10.70
2021,04,17,09,00,10.80
2021,04,17,09,01,10.70
2021,04,17,09,02,10.70
2021,04,17,09,03,10.80
2021,04,17,09,04,10.70
2021,04,17,09,05,10.80
2021,04,17,09,06,10.80
2021,04,17,09,07,10.80
2021,04,17,09,08,10.80
2021,04,17,09,09,10.80
2021,04,17,09,10,10.80
2021,04,17,09,11,10.80
2021,04,17,09,12,10.90
2021,04,17,09,13,10.90
2021,04,17,09,14,11.00
2021,04,17,09,15,11.10
2021,04,17,09,16,11.10
2021,04,17,09,17,11.20
2021,04,17,09,18,11.20
2021,04,17,09,19,11.30
2021,04,17,09,20,11.40
2021,04,17,09,21,11.50
2021,04,17,09,22,11.60
2021,04,17,09,23,11.80
2021,04,17,09,24,11.90
2021,04,17,09,25,12.10
2021,04,17,09,26,12.20
2021,04,17,09,27,12.30
2021,04,17,09,28,12.40
2021,04,17,09,29,12.40
2021,04,17,09,30,12.50
2021,04,17,09,31,12.60
2021,04,17,09,32,12.60
2021,04,17,09,33,12.70
2021,04,17,09,34,12.80
2021,04,17,09,35,12.90
2021,04,17,09,36,12.90
2021,04,17,09,37,13.00
2021,04,17,09,38,13.00
2021,04,17,09,39,13.10
2021,04,17,09,40,13.20
2021,04,17,09,41,13.30
2021,04,17,09,42,13.30
2021,04,17,09,43,13.40
2021,04,17,09,44,13.50
2021,04,17,09,45,13.60
2021,04,17,09,46,13.60
2021,04,17,09,47,13.70
2021,04,17,09,48,13.80
2021,04,17,09,49,13.80
2021,04,17,09,50,13.90
2021,04,17,09,51,14.00
2021,04,17,09,52,14.00
2021,04,17,09,53,14.10
2021,04,17,09,54,14.20
2021,04,17,09,55,14.30
2021,04,17,09,56,14.30
2021,04,17,09,57,14.30
2021,04,17,09,58,14.30
2021,04,17,09,59,14.30
2021,04,17,10,00,14.30
2021,04,17,10,01,14.30
2021,04,17,10,02,14.30
2021,04,17,10,03,14.50
2021,04,17,10,04,14.50
2021,04,17,10,05,14.50
2021,04,17,10,06,14.50
2021,04,17,10,07,14.50
2021,04,17,10,08,14.60
2021,04,17,10,09,14.70
2021,04,17,10,10,14.70
2021,04,17,10,11,14.80
2021,04,17,10,12,14.80
2021,04,17,10,13,14.80
2021,04,17,10,14,14.90
2021,04,17,10,15,15.00
2021,04,17,10,16,15.00
2021,04,17,10,17,15.10
2021,04,17,10,18,15.20
2021,04,17,10,19,15.30
2021,04,17,10,20,15.30
2021,04,17,10,21,15.40
2021,04,17,10,22,15.30
2021,04,17,10,23,15.40
2021,04,17,10,24,15.40
2021,04,17,10,25,15.50
2021,04,17,10,26,15.60
2021,04,17,10,27,15.80
2021,04,17,10,28,15.90
2021,04,17,10,29,16.00
2021,04,17,10,30,16.00
2021,04,17,10,31,16.10
2021,04,17,10,32,16.20
2021,04,17,10,33,16.30
2021,04,17,10,34,16.30
2021,04,17,10,35,16.30
2021,04,17,10,36,16.30
2021,04,17,10,37,16.30
2021,04,17,10,38,16.20
2021,04,17,10,39,16.20
2021,04,17,10,40,16.30
2021,04,17,10,41,16.40
2021,04,17,10,42,16.50
2021,04,17,10,43,16.60
2021,04,17,10,44,16.70
2021,04,17,10,45,16.70
2021,04,17,10,46,16.80
2021,04,17,10,47,16.90
2021,04,17,10,48,17.00
2021,04,17,10,49,17.10
2021,04,17,10,50,17.20
2021,04,17,10,51,17.20
2021,04,17,10,52,17.30
2021,04,17,10,53,17.30
2021,04,17,10,54,17.30
2021,04,17,10,55,17.30
2021,04,17,10,56,17.20
2021,04,17,10,57,17.10
2021,04,17,10,58,17.10
2021,04,17,10,59,17.10
2021,04,17,11,00,17.10
2021,04,17,11,01,17.20
2021,04,17,11,02,17.30
2021,04,17,11,03,17.40
2021,04,17,11,04,17.50
2021,04,17,11,05,17.60
2021,04,17,11,06,17.70
2021,04,17,11,07,17.70
2021,04,17,11,08,17.80
2021,04,17,11,09,17.90
2021,04,17,11,10,17.90
2021,04,17,11,11,17.90
2021,04,17,11,12,17.90
2021,04,17,11,13,17.90
2021,04,17,11,14,17.90
2021,04,17,11,15,18.00
2021,04,17,11,16,18.00
2021,04,17,11,17,18.10
2021,04,17,11,18,18.10
2021,04,17,11,19,18.10
2021,04,17,11,20,18.10
2021,04,17,11,21,18.20
2021,04,17,11,22,18.20
2021,04,17,11,23,18.30
2021,04,17,11,24,18.40
2021,04,17,11,25,18.60
2021,04,17,11,26,18.70
2021,04,17,11,27,18.80
2021,04,17,11,28,18.80
2021,04,17,11,29,18.80
2021,04,17,11,30,18.80
2021,04,17,11,31,18.70
2021,04,17,11,32,18.70
2021,04,17,11,33,18.60
2021,04,17,11,34,18.60
2021,04,17,11,35,18.60
2021,04,17,11,36,18.50
2021,04,17,11,37,18.60
2021,04,17,11,38,18.60
2021,04,17,11,39,18.60
2021,04,17,11,40,18.70
2021,04,17,11,41,18.70
2021,04,17,11,42,18.80
2021,04,17,11,43,18.80
2021,04,17,11,44,18.90
2021,04,17,11,45,19.00
2021,04,17,11,46,19.10
2021,04,17,11,47,19.10
2021,04,17,11,48,19.20
2021,04,17,11,49,19.30
2021,04,17,11,50,19.40
2021,04,17,11,51,19.50
2021,04,17,11,52,19.60
2021,04,17,11,53,19.70
2021,04,17,11,54,19.80
2021,04,17,11,55,19.90
2021,04,17,11,56,20.00
2021,04,17,11,57,20.10
2021,04,17,11,58,20.20
2021,04,17,11,59,20.20
2021,04,17,12,00,20.20
2021,04,17,12,01,20.20
2021,04,17,12,02,20.20
2021,04,17,12,03,20.30
2021,04,17,12,04,20.40
2021,04,17,12,05,20.50
2021,04,17,12,06,20.60
2021,04,17,12,07,20.70
2021,04,17,12,08,20.70
2021,04,17,12,09,20.70
2021,04,17,12,10,20.70
2021,04,17,12,11,20.70
2021,04,17,12,12,20.70
2021,04,17,12,13,20.70
2021,04,17,12,14,20.80
2021,04,17,12,15,20.80
2021,04,17,12,16,21.00
2021,04,17,12,17,21.00
2021,04,17,12,18,21.00
2021,04,17,12,19,21.00
2021,04,17,12,20,20.90
2021,04,17,12,21,20.90
2021,04,17,12,22,20.90
2021,04,17,12,23,20.90
2021,04,17,12,24,20.90
2021,04,17,12,25,21.00
2021,04,17,12,26,21.10
2021,04,17,12,27,21.10
2021,04,17,12,28,21.20
2021,04,17,12,29,21.20
2021,04,17,12,30,21.30
2021,04,17,12,31,21.40
2021,04,17,12,32,21.40
2021,04,17,12,33,21.40
2021,04,17,12,34,21.40
2021,04,17,12,35,21.50
2021,04,17,12,36,21.50
2021,04,17,12,37,21.60
2021,04,17,12,38,21.60
2021,04,17,12,39,21.60
2021,04,17,12,40,21.60
2021,04,17,12,41,21.60
2021,04,17,12,42,21.80
2021,04,17,12,43,21.80
2021,04,17,12,44,22.00
2021,04,17,12,45,22.10
2021,04,17,12,46,22.30
2021,04,17,12,47,22.30
2021,04,17,12,48,22.40
2021,04,17,12,49,22.40
2021,04,17,12,50,22.50
2021,04,17,12,51,22.60
2021,04,17,12,52,22.70
2021,04,17,12,53,22.70
2021,04,17,12,54,22.70
2021,04,17,12,55,22.70
2021,04,17,12,56,22.70
2021,04,17,12,57,22.70
2021,04,17,12,58,22.60
2021,04,17,12,59,22.50
2021,04,17,13,00,22.50
2021,04,17,13,01,22.50
2021,04,17,13,02,22.50
2021,04,17,13,03,22.60
2021,04,17,13,04,22.70
2021,04,17,13,05,22.80
2021,04,17,13,06,22.80
2021,04,17,13,07,22.90
2021,04,17,13,08,22.90
2021,04,17,13,09,23.00
2021,04,17,13,10,23.10
2021,04,17,13,11,23.20
2021,04,17,13,12,23.30
2021,04,17,13,13,23.40
2021,04,17,13,14,23.30
2021,04,17,13,15,23.30
2021,04,17,13,16,23.20
2021,04,17,13,17,23.20
2021,04,17,13,18,23.20
2021,04,17,13,19,23.20
2021,04,17,13,20,23.30
2021,04,17,13,21,23.30
2021,04,17,13,22,23.40
2021,04,17,13,23,23.50
2021,04,17,13,24,23.60
2021,04,17,13,25,23.60
2021,04,17,13,26,23.50
2021,04,17,13,27,23.50
2021,04,17,13,28,23.50
2021,04,17,13,29,23.60
2021,04,17,13,30,23.60
2021,04,17,13,31,23.70
2021,04,17,13,32,23.70
2021,04,17,13,33,23.70
2021,04,17,13,34,23.80
2021,04,17,13,35,23.90
2021,04,17,13,36,24.00
2021,04,17,13,37,24.10
2021,04,17,13,38,24.20
2021,04,17,13,39,24.20
2021,04,17,13,40,24.30
2021,04,17,13,41,24.30
2021,04,17,13,42,24.40
2021,04,17,13,43,24.40
2021,04,17,13,44,24.50
2021,04,17,13,45,24.60
2021,04,17,13,46,24.60
2021,04,17,13,47,24.70
2021,04,17,13,48,24.70
2021,04,17,13,49,24.80
2021,04,17,13,50,24.90
2021,04,17,13,51,24.90
2021,04,17,13,52,24.90
2021,04,17,13,53,25.00
2021,04,17,13,54,25.00
2021,04,17,13,55,25.10
2021,04,17,13,56,25.20
2021,04,17,13,57,25.30
2021,04,17,13,58,25.40
2021,04,17,13,59,25.50
2021,04,17,14,00,25.60
2021,04,17,14,01,25.70
2021,04,17,14,02,25.80
2021,04,17,14,03,25.90
2021,04,17,14,04,26.00
2021,04,17,14,05,26.10
2021,04,17,14,06,26.10
2021,04,17,14,07,26.10
2021,04,17,14,08,26.10
2021,04,17,14,09,26.00
2021,04,17,14,10,26.10
2021,04,17,14,11,26.10
2021,04,17,14,12,26.20
2021,04,17,14,13,26.30
2021,04,17,14,14,26.50
2021,04,17,14,15,26.50
2021,04,17,14,16,26.60
2021,04,17,14,17,26.60
2021,04,17,14,18,26.60
2021,04,17,14,19,26.60
2021,04,17,14,20,26.60
2021,04,17,14,21,26.50
2021,04,17,14,22,26.40
2021,04,17,14,23,26.40
2021,04,17,14,24,26.30
2021,04,17,14,25,26.30
2021,04,17,14,26,26.30
2021,04,17,14,27,26.40
2021,04,17,14,28,26.40
2021,04,17,14,29,26.40
2021,04,17,14,30,26.40
2021,04,17,14,31,26.30
2021,04,17,14,32,26.30
2021,04,17,14,33,26.30
2021,04,17,14,34,26.30
2021,04,17,14,35,26.40
2021,04,17,14,36,26.40
2021,04,17,14,37,26.40
2021,04,17,14,38,26.50
2021,04,17,14,39,26.40
2021,04,17,14,40,26.40
2021,04,17,14,41,26.50
2021,04,17,14,42,26.50
2021,04,17,14,43,26.60
2021,04,17,14,44,26.50
2021,04,17,14,45,26.50
2021,04,17,14,46,26.40
2021,04,17,14,47,26.30
2021,04,17,14,48,26.30
2021,04,17,14,49,26.30
2021,04,17,14,50,26.30
2021,04,17,14,51,26.30
2021,04,17,14,52,26.30
2021,04,17,14,53,26.30
2021,04,17,14,54,26.40
2021,04,17,14,55,26.40
2021,04,17,14,56,26.40
2021,04,17,14,57,26.40
2021,04,17,14,58,26.40
2021,04,17,14,59,26.40
2021,04,17,15,00,26.50
2021,04,17,15,01,26.60
2021,04,17,15,02,26.60
2021,04,17,15,03,26.60
2021,04,17,15,04,26.60
2021,04,17,15,05,26.60
2021,04,17,15,06,26.50
2021,04,17,15,07,26.50
2021,04,17,15,08,26.50
2021,04,17,15,09,26.40
2021,04,17,15,10,26.50
2021,04,17,15,11,26.40
2021,04,17,15,12,26.40
2021,04,17,15,13,26.30
2021,04,17,15,14,26.30
2021,04,17,15,15,26.20
2021,04,17,15,16,26.20
2021,04,17,15,17,26.20
2021,04,17,15,18,26.20
2021,04,17,15,19,26.30
2021,04,17,15,20,26.30
2021,04,17,15,21,26.30
2021,04,17,15,22,26.30
2021,04,17,15,23,26.30
2021,04,17,15,24,26.30
2021,04,17,15,25,26.30
2021,04,17,15,26,26.30
2021,04,17,15,27,26.30
2021,04,17,15,28,26.30
2021,04,17,15,29,26.30
2021,04,17,15,30,26.30
2021,04,17,15,31,26.30
2021,04,17,15,32,26.30
2021,04,17,15,33,26.30
2021,04,17,15,34,26.30
2021,04,17,15,35,26.30
2021,04,17,15,36,26.30
2021,04,17,15,37,26.30
2021,04,17,15,38,26.30
2021,04,17,15,39,26.30
2021,04,17,15,40,26.30
2021,04,17,15,41,26.30
2021,04,17,15,42,26.30
2021,04,17,15,43,26.30
2021,04,17,15,44,26.30
2021,04,17,15,45,26.30
2021,04,17,15,46,26.30
2021,04,17,15,47,26.30
2021,04,17,15,48,26.30
2021,04,17,15,49,26.30
2021,04,17,15,50,26.30
2021,04,17,15,51,26.30
2021,04,17,15,52,26.30
2021,04,17,15,53,26.30
2021,04,17,15,54,26.30
2021,04,17,15,55,26.30
2021,04,17,15,56,26.20
2021,04,17,15,57,26.30
2021,04,17,15,58,26.30
2021,04,17,15,59,26.30
2021,04,17,16,00,26.30
2021,04,17,16,01,26.30
2021,04,17,16,02,26.30
2021,04,17,16,03,26.30
2021,04,17,16,04,26.30
2021,04,17,16,05,26.20
2021,04,17,16,06,26.10
2021,04,17,16,07,26.10
2021,04,17,16,08,26.10
2021,04,17,16,09,26.00
2021,04,17,16,10,26.00
2021,04,17,16,11,26.00
2021,04,17,16,12,26.00
2021,04,17,16,13,26.10
2021,04,17,16,14,26.10
2021,04,17,16,15,26.10
2021,04,17,16,16,26.10
2021,04,17,16,17,26.10
2021,04,17,16,18,26.10
2021,04,17,16,19,26.10
2021,04,17,16,20,26.20
2021,04,17,16,21,26.20
2021,04,17,16,22,26.20
2021,04,17,16,23,26.20
2021,04,17,16,24,26.30
2021,04,17,16,25,26.30
2021,04,17,16,26,26.30
2021,04,17,16,27,26.30
2021,04,17,16,28,26.30
2021,04,17,16,29,26.20
2021,04,17,16,30,26.20
2021,04,17,16,31,26.10
2021,04,17,16,32,26.10
2021,04,17,16,33,26.00
2021,04,17,16,34,26.00
2021,04,17,16,35,26.00
2021,04,17,16,36,26.00
2021,04,17,16,37,26.00
2021,04,17,16,38,26.10
2021,04,17,16,39,26.10
2021,04,17,16,40,26.10
2021,04,17,16,41,26.10
2021,04,17,16,42,26.10
2021,04,17,16,43,26.00
2021,04,17,16,44,26.00
2021,04,17,16,45,26.00
2021,04,17,16,46,26.00
2021,04,17,16,47,26.00
2021,04,17,16,48,25.90
2021,04,17,16,49,25.90
2021,04,17,16,50,25.90
2021,04,17,16,51,25.90
2021,04,17,16,52,25.90
2021,04,17,16,53,25.90
2021,04,17,16,54,25.80
2021,04,17,16,55,25.80
2021,04,17,16,56,25.80
2021,04,17,16,57,25.80
2021,04,17,16,58,25.90
2021,04,17,16,59,25.90
2021,04,17,17,00,25.90
2021,04,17,17,01,25.90
2021,04,17,17,02,25.90
2021,04,17,17,03,25.90
2021,04,17,17,04,25.90
2021,04,17,17,05,25.90
2021,04,17,17,06,25.90
2021,04,17,17,07,25.90
2021,04,17,17,08,25.90
2021,04,17,17,09,25.80
2021,04,17,17,10,25.70
2021,04,17,17,11,25.70
2021,04,17,17,12,25.70
2021,04,17,17,13,25.70
2021,04,17,17,14,25.60
2021,04,17,17,15,25.60
2021,04,17,17,16,25.70
2021,04,17,17,17,25.70
2021,04,17,17,18,25.70
2021,04,17,17,19,25.70
2021,04,17,17,20,25.70
2021,04,17,17,21,25.60
2021,04,17,17,22,25.60
2021,04,17,17,23,25.70
2021,04,17,17,24,25.70
2021,04,17,17,25,25.60
2021,04,17,17,26,25.60
2021,04,17,17,27,25.60
2021,04,17,17,28,25.60
2021,04,17,17,29,25.60
2021,04,17,17,30,25.60
2021,04,17,17,31,25.70
2021,04,17,17,32,25.70
2021,04,17,17,33,25.70
2021,04,17,17,34,25.70
2021,04,17,17,35,25.70
2021,04,17,17,36,25.70
2021,04,17,17,37,25.60
2021,04,17,17,38,25.60
2021,04,17,17,39,25.70
2021,04,17,17,40,25.70